Weather Roundup
Issued by NWS Chicago, IL

Current Version | Previous Version | Text Only | Print | Product List | Glossary On
Versions: 1 2 3 4 5 6 7 8 9 10 11 12 13 14 15 16 17 18 19 20 21 22 23 24 25 26 27 28 29 30 31 32 33 34 35 36 37 38 39 40 41 42 43 44 45 46 47 48 49 50
000
NZUS59 KLOT 221610
HRRLOT

CHICAGO AREA WEATHER ROUNDUP
NATIONAL WEATHER SERVICE CHICAGO/ROMEOVILLE IL
1100 AM CDT FRI AUG 22 2014

NOTE: "FAIR" INDICATES FEW OR NO CLOUDS BELOW 12,000 FEET WITH NO
SIGNIFICANT WEATHER AND/OR OBSTRUCTIONS TO VISIBILITY.

* THESE STATIONS ARE NOT UNDER NWS QUALITY CONTROL. THEY ALSO MAY NOT
  REPORT WEATHER SUCH AS PRECIPITATION OR FOG.

ILZ005-006-012>014-019>023-221700-
NORTHEAST ILLINOIS

CITY           SKY/WX    TMP DP  RH WIND       PRES   REMARKS
OHARE          CLOUDY    79  74  84 W7        29.96R HX  82
MIDWAY         CLOUDY    80  74  81 SW9       29.96R HX  85
AURORA         CLOUDY    77  71  82 W9        29.98R
LANSING*       CLOUDY    80  73  81 W5        29.97F HX  84
JOLIET*        CLOUDY    77  71  81 W7        29.99R
WAUKEGAN       CLOUDY    75  72  90 E5        29.96R
DUPAGE AIRPORT CLOUDY    79  72  79 SW12      29.96F HX  82
WHEELING       CLOUDY    80  74  81 S6        29.97R HX  85
KANKAKEE*      CLOUDY    76  73  89 SW9       30.00R
MORRIS*        CLOUDY    77  73  86 W10G21    29.97F
LEWIS AIRPORT* CLOUDY    78  73  86 W10       29.98S HX  80
NORTHERLY IS     N/A     78  72  81 S5          N/A  HX  80
$$

WIZ051-052-058>065-066-070>072-221700-
SOUTHEAST WISCONSIN

CITY           SKY/WX    TMP DP  RH WIND       PRES   REMARKS
MILWAUKEE      CLOUDY    72  69  90 E6        29.98R FOG
KENOSHA*       CLOUDY    76  73  91 E8        29.97S
RACINE*        CLOUDY    73  69  87 E7        29.98S
BURLINGTON     PTSUNNY   76  73  88 CALM      29.96S
WAUKESHA       MOSUNNY   79  72  78 CALM      29.97R HX  82
WEST BEND      CLOUDY    72  72 100 SE3       29.97S FOG
$$

INZ001>003-010>013-019-020-221700-
NORTHWEST INDIANA

CITY           SKY/WX    TMP DP  RH WIND       PRES   REMARKS
GARY*          CLOUDY    81  73  78 SW7       29.98R HX  85
MICHIGAN CITY* NOT AVBL
RENSSELAER*    NOT AVBL
VALPARAISO     CLOUDY    78  72  81 SW8       29.99R HX  80
$$

LMZ740>746-221700-
SOUTHERN LAKE MICHIGAN

STATION/POSITION TIME  SKY/WX   TEMP WIND        PRES    VSBY
                                AIR  DIR/SP/G
                 (UTC)          (F)  (DEG/KT/KT) (MB)    (MI)
HARRISON CRIB    1600            76  220/  6/  7   N/A
BURNHAM HARBOR   1600            78  250/  5/  7   N/A
CALUMET HARBOR   1600            78  220/  7/ 11 1013.6R
BURNS HARBOR     NOT AVBL
MICHIGAN CITY    1600            76  220/  7/  8   N/A
$$

ABBREVIATIONS USED IN REMARKS
   TC - TEMPERATURE IN CELSIUS
  WCI - WIND CHILL INDEX
   HX - HEAT INDEX
  VSB - VISIBILITY
$$



USA.gov is the U.S. government's official web portal to all federal, state and local government web resources and services.